"Period start","avg(HW err(1)/warn(2) (#))","avg(Visibility (m))","avg(Weather code (#))","avg(Precip intensity (mm/h))","min(HW err(1)/warn(2) (#))","max(HW err(1)/warn(2) (#))","std(HW err(1)/warn(2) (#))","med(HW err(1)/warn(2) (#))","min(Visibility (m))","max(Visibility (m))","std(Visibility (m))","med(Visibility (m))","min(Weather code (#))","max(Weather code (#))","std(Weather code (#))","med(Weather code (#))","min(Precip intensity (mm/h))","max(Precip intensity (mm/h))","std(Precip intensity (mm/h))","med(Precip intensity (mm/h))"
2013-08-06 00:00:00,0,46307,0,0.00,0,2,1,0,40076,50000,3689,46708,0,0,0,0,0.00,0.00,0.00,0.00
2013-08-06 00:10:00,0,49310,0,0.00,0,0,0,0,47683,50000,733,49434,0,0,0,0,0.00,0.00,0.00,0.00
2013-08-06 00:20:00,0,45996,0,0.00,0,2,1,0,40195,50000,4172,47568,0,0,0,0,0.00,0.00,0.00,0.00
2013-08-06 00:30:00,0,49073,0,0.00,0,0,0,0,45365,50000,1523,50000,0,0,0,0,0.00,0.00,0.00,0.00
2013-08-06 00:40:00,0,47085,0,0.00,0,2,1,0,41038,50000,3345,48559,0,0,0,0,0.00,0.00,0.00,0.00
2013-08-06 00:50:00,0,46441,0,0.00,0,0,0,0,39777,50000,2830,47232,0,0,0,0,0.00,0.00,0.00,0.00
2013-08-06 01:00:00,0,48481,0,0.00,0,0,0,0,44209,50000,2087,50000,0,0,0,0,0.00,0.00,0.00,0.00
2013-08-06 01:10:00,0,45103,0,0.00,0,0,0,0,38129,50000,4150,45159,0,0,0,0,0.00,0.00,0.00,0.00
2013-08-06 01:20:00,0,47288,0,0.00,0,0,0,0,36375,50000,4409,50000,0,0,0,0,0.00,0.00,0.00,0.00
2013-08-06 01:30:00,0,46601,0,0.00,0,0,0,0,35739,50000,4920,49504,0,0,0,0,0.00,0.00,0.00,0.00
2013-08-06 01:40:00,0,47344,0,0.00,0,0,0,0,39029,50000,3559,48671,0,0,0,0,0.00,0.00,0.00,0.00
2013-08-06 01:50:00,0,45806,0,0.00,0,0,0,0,41339,50000,3477,45756,0,0,0,0,0.00,0.00,0.00,0.00
2013-08-06 02:00:00,0,47130,0,0.00,0,0,0,0,35841,50000,4520,49260,0,0,0,0,0.00,0.00,0.00,0.00
2013-08-06 02:10:00,0,49108,0,0.00,0,0,0,0,46352,50000,1368,50000,0,0,0,0,0.00,0.00,0.00,0.00
2013-08-06 02:20:00,0,49880,0,0.00,0,0,0,0,49110,50000,273,50000,0,0,0,0,0.00,0.00,0.00,0.00
2013-08-06 02:30:00,0,48138,0,0.00,0,0,0,0,39530,50000,3217,49852,0,0,0,0,0.00,0.00,0.00,0.00
2013-08-06 02:40:00,0,46783,0,0.00,0,0,0,0,34970,50000,4594,48576,0,0,0,0,0.00,0.00,0.00,0.00
2013-08-06 02:50:00,0,45716,0,0.00,0,0,0,0,35227,50000,5261,48346,0,0,0,0,0.00,0.00,0.00,0.00
2013-08-06 03:00:00,0,45955,0,0.00,0,0,0,0,39074,50000,4266,47434,0,0,0,0,0.00,0.00,0.00,0.00
2013-08-06 03:10:00,0,46954,0,0.00,0,0,0,0,39487,50000,3515,48175,0,0,0,0,0.00,0.00,0.00,0.00
2013-08-06 03:20:00,0,45260,0,0.00,0,0,0,0,38394,50000,3607,45126,0,0,0,0,0.00,0.00,0.00,0.00
2013-08-06 03:30:00,0,44332,0,0.00,0,0,0,0,31460,50000,6623,46876,0,0,0,0,0.00,0.00,0.00,0.00
2013-08-06 03:40:00,0,49031,0,0.00,0,0,0,0,45562,50000,1617,50000,0,0,0,0,0.00,0.00,0.00,0.00
2013-08-06 03:50:00,0,49494,0,0.00,0,0,0,0,47332,50000,880,50000,0,0,0,0,0.00,0.00,0.00,0.00
2013-08-06 04:00:00,0,46491,0,0.00,0,0,0,0,38278,50000,4683,50000,0,0,0,0,0.00,0.00,0.00,0.00
2013-08-06 04:10:00,0,48500,0,0.00,0,0,0,0,37620,50000,3710,50000,0,0,0,0,0.00,0.00,0.00,0.00
2013-08-06 04:20:00,0,48469,0,0.00,0,0,0,0,39008,50000,3334,49986,0,0,0,0,0.00,0.00,0.00,0.00
2013-08-06 04:30:00,0,49457,0,0.00,0,0,0,0,46733,50000,1114,50000,0,0,0,0,0.00,0.00,0.00,0.00
2013-08-06 04:40:00,0,47833,0,0.00,0,0,0,0,36911,50000,4450,50000,0,0,0,0,0.00,0.00,0.00,0.00
2013-08-06 04:50:00,0,49049,0,0.00,0,0,0,0,46205,50000,1133,49191,0,0,0,0,0.00,0.00,0.00,0.00
2013-08-06 05:00:00,0,49582,0,0.00,0,0,0,0,47222,50000,891,50000,0,0,0,0,0.00,0.00,0.00,0.00
2013-08-06 05:10:00,0,49412,0,0.00,0,0,0,0,46854,50000,1179,50000,0,0,0,0,0.00,0.00,0.00,0.00
2013-08-06 05:20:00,0,39413,0,0.00,0,0,0,0,27215,50000,7576,40182,0,0,0,0,0.00,0.00,0.00,0.00
2013-08-06 05:30:00,0,27919,0,0.00,0,0,0,0,15366,43582,8477,30214,0,0,0,0,0.00,0.00,0.00,0.00
2013-08-06 05:40:00,0,14703,0,0.00,0,0,0,0,12384,16709,1545,14916,0,0,0,0,0.00,0.00,0.00,0.00
2013-08-06 05:50:00,0,14426,0,0.00,0,0,0,0,12757,15424,830,14661,0,0,0,0,0.00,0.00,0.00,0.00
2013-08-06 06:00:00,0,16403,0,0.00,0,0,0,0,14280,18905,1137,16288,0,0,0,0,0.00,0.00,0.00,0.00
2013-08-06 06:10:00,0,16858,0,0.00,0,0,0,0,14614,20888,1863,16514,0,0,0,0,0.00,0.00,0.00,0.00
2013-08-06 06:20:00,0,17203,0,0.00,0,0,0,0,14909,19583,1326,16838,0,0,0,0,0.00,0.00,0.00,0.00
2013-08-06 06:30:00,0,17197,0,0.00,0,0,0,0,15517,20946,1872,16268,0,0,0,0,0.00,0.00,0.00,0.00
2013-08-06 06:40:00,0,15674,0,0.00,0,0,0,0,12969,17680,1478,15496,0,0,0,0,0.00,0.00,0.00,0.00
2013-08-06 06:50:00,0,17008,0,0.00,0,0,0,0,13988,21120,2098,16360,0,0,0,0,0.00,0.00,0.00,0.00
2013-08-06 07:00:00,0,17695,0,0.00,0,0,0,0,14533,22077,2106,17556,0,0,0,0,0.00,0.00,0.00,0.00
2013-08-06 07:10:00,0,17889,0,0.00,0,0,0,0,15033,27885,3524,16968,0,0,0,0,0.00,0.00,0.00,0.00
2013-08-06 07:20:00,0,23737,0,0.00,0,0,0,0,17947,28074,3325,24229,0,0,0,0,0.00,0.00,0.00,0.00
2013-08-06 07:30:00,0,19846,0,0.00,0,0,0,0,17678,22825,1645,19809,0,0,0,0,0.00,0.00,0.00,0.00
2013-08-06 07:40:00,0,20664,0,0.00,0,0,0,0,16385,22830,1818,20825,0,0,0,0,0.00,0.00,0.00,0.00
2013-08-06 07:50:00,0,22197,0,0.00,0,0,0,0,18678,25222,1965,22286,0,0,0,0,0.00,0.00,0.00,0.00
2013-08-06 08:00:00,0,18675,0,0.00,0,0,0,0,16653,23371,1900,18030,0,0,0,0,0.00,0.00,0.00,0.00
2013-08-06 08:10:00,0,16804,0,0.00,0,0,0,0,14879,18827,1331,16630,0,0,0,0,0.00,0.00,0.00,0.00
2013-08-06 08:20:00,0,17452,0,0.00,0,0,0,0,14532,22584,2133,16950,0,0,0,0,0.00,0.00,0.00,0.00
2013-08-06 08:30:00,0,18538,0,0.00,0,0,0,0,16334,21212,1517,18266,0,0,0,0,0.00,0.00,0.00,0.00
2013-08-06 08:40:00,0,18597,0,0.00,0,0,0,0,16438,19919,928,18763,0,0,0,0,0.00,0.00,0.00,0.00
2013-08-06 08:50:00,0,20401,0,0.00,0,0,0,0,18394,22183,1279,20647,0,0,0,0,0.00,0.00,0.00,0.00
2013-08-06 09:00:00,0,24129,0,0.00,0,0,0,0,21013,28883,2212,24368,0,0,0,0,0.00,0.00,0.00,0.00
2013-08-06 09:10:00,0,20899,18,0.15,0,0,0,0,12590,24850,3361,22092,0,61,28,0,0.00,0.90,0.30,0.00
2013-08-06 09:20:00,0,25812,0,0.00,0,0,0,0,21543,31962,3067,25506,0,0,0,0,0.00,0.00,0.00,0.00
2013-08-06 09:30:00,0,30040,0,0.00,0,0,0,0,25567,37847,3307,29285,0,0,0,0,0.00,0.00,0.00,0.00
2013-08-06 09:40:00,0,28266,0,0.00,0,0,0,0,23943,33439,2918,28302,0,0,0,0,0.00,0.00,0.00,0.00
2013-08-06 09:50:00,0,23081,0,0.00,0,0,0,0,20484,26910,1985,22349,0,0,0,0,0.00,0.00,0.00,0.00
2013-08-06 10:00:00,0,15118,0,0.00,0,0,0,0,11603,21225,3233,13478,0,0,0,0,0.00,0.00,0.00,0.00
2013-08-06 10:10:00,0,11002,0,0.00,0,0,0,0,9210,12834,1216,10962,0,0,0,0,0.00,0.00,0.00,0.00
2013-08-06 10:20:00,0,6762,7,0.00,0,0,0,0,6201,8132,537,6554,0,10,5,10,0.00,0.00,0.00,0.00
2013-08-06 10:30:00,0,7118,10,0.00,0,0,0,0,6775,7348,179,7139,10,10,0,10,0.00,0.00,0.00,0.00
2013-08-06 10:40:00,0,7306,10,0.00,0,0,0,0,6904,7550,193,7366,10,10,0,10,0.00,0.00,0.00,0.00
2013-08-06 10:50:00,0,8594,10,0.00,0,0,0,0,7173,11214,1353,8324,10,10,0,10,0.00,0.00,0.00,0.00
2013-08-06 11:00:00,0,12998,8,0.00,0,0,0,0,11994,14204,565,12960,0,10,4,10,0.00,0.00,0.00,0.00
2013-08-06 11:10:00,0,17863,0,0.00,0,0,0,0,15780,19851,1053,17834,0,0,0,0,0.00,0.00,0.00,0.00
2013-08-06 11:20:00,0,20622,0,0.00,0,0,0,0,18442,22540,1488,20754,0,0,0,0,0.00,0.00,0.00,0.00
2013-08-06 11:30:00,0,21028,0,0.00,0,0,0,0,15756,26354,3349,20802,0,0,0,0,0.00,0.00,0.00,0.00
2013-08-06 11:40:00,0,22961,0,0.00,0,0,0,0,20805,26962,1938,22324,0,0,0,0,0.00,0.00,0.00,0.00
2013-08-06 11:50:00,0,21576,0,0.00,0,0,0,0,18432,25466,2229,21139,0,0,0,0,0.00,0.00,0.00,0.00
2013-08-06 12:00:00,0,27456,0,0.00,0,0,0,0,20446,33913,3815,27546,0,0,0,0,0.00,0.00,0.00,0.00
2013-08-06 12:10:00,0,30000,0,0.00,0,0,0,0,19544,36767,5818,32513,0,0,0,0,0.00,0.00,0.00,0.00
2013-08-06 12:20:00,0,21277,0,0.00,0,0,0,0,19112,24371,1467,21588,0,0,0,0,0.00,0.00,0.00,0.00
2013-08-06 12:30:00,0,33668,0,0.00,0,0,0,0,28311,40908,3834,33522,0,0,0,0,0.00,0.00,0.00,0.00
2013-08-06 12:40:00,0,30764,0,0.00,0,0,0,0,27070,37328,3171,29411,0,0,0,0,0.00,0.00,0.00,0.00
2013-08-06 12:50:00,0,30732,0,0.00,0,0,0,0,28563,34658,2050,30263,0,0,0,0,0.00,0.00,0.00,0.00
2013-08-06 13:00:00,0,31179,0,0.00,0,0,0,0,25421,37237,3330,30882,0,0,0,0,0.00,0.00,0.00,0.00
2013-08-06 13:10:00,0,36490,0,0.00,0,0,0,0,31850,44751,3915,36141,0,0,0,0,0.00,0.00,0.00,0.00
2013-08-06 13:20:00,0,29673,12,0.36,0,0,0,0,14360,38341,7529,32108,0,61,24,0,0.00,2.15,0.74,0.00
2013-08-06 13:30:00,0,29316,0,0.00,0,0,0,0,25912,35929,3220,28343,0,0,0,0,0.00,0.00,0.00,0.00
2013-08-06 13:40:00,0,30340,0,0.00,0,0,0,0,12469,40381,8821,33018,0,0,0,0,0.00,0.00,0.00,0.00
2013-08-06 13:50:00,0,32087,0,0.00,0,0,0,0,29769,35622,1947,31536,0,0,0,0,0.00,0.00,0.00,0.00
2013-08-06 14:00:00,0,32596,0,0.00,0,0,0,0,28013,36222,2124,33105,0,0,0,0,0.00,0.00,0.00,0.00
2013-08-06 14:10:00,0,31089,0,0.00,0,0,0,0,26657,37914,3434,30357,0,0,0,0,0.00,0.00,0.00,0.00
2013-08-06 14:20:00,0,30702,0,0.00,0,0,0,0,27521,40042,3424,29986,0,0,0,0,0.00,0.00,0.00,0.00
2013-08-06 14:30:00,0,30916,0,0.00,0,0,0,0,23368,36337,4326,31588,0,0,0,0,0.00,0.00,0.00,0.00
2013-08-06 14:40:00,0,34838,0,0.00,0,0,0,0,29875,40964,3353,34720,0,0,0,0,0.00,0.00,0.00,0.00
2013-08-06 14:50:00,0,36900,0,0.00,0,0,0,0,33141,44382,3239,35481,0,0,0,0,0.00,0.00,0.00,0.00
2013-08-06 15:00:00,0,39984,0,0.00,0,0,0,0,33452,45387,3930,41393,0,0,0,0,0.00,0.00,0.00,0.00
2013-08-06 15:10:00,0,41058,0,0.00,0,0,0,0,31695,50000,5999,41382,0,0,0,0,0.00,0.00,0.00,0.00
2013-08-06 15:20:00,0,30852,0,0.00,0,0,0,0,24798,36549,3199,31372,0,0,0,0,0.00,0.00,0.00,0.00
2013-08-06 15:30:00,0,24408,0,0.00,0,0,0,0,21501,27612,1820,23836,0,0,0,0,0.00,0.00,0.00,0.00
2013-08-06 15:40:00,1,19347,0,0.00,0,2,1,0,16518,23587,2011,19125,0,0,0,0,0.00,0.00,0.00,0.00
2013-08-06 15:50:00,2,19009,0,0.00,0,2,1,2,17159,20488,909,19050,0,0,0,0,0.00,0.00,0.00,0.00
2013-08-06 16:00:00,2,21864,0,0.00,2,2,0,2,19551,24303,1463,21581,0,0,0,0,0.00,0.00,0.00,0.00
2013-08-06 16:10:00,1,22863,0,0.00,0,2,1,2,19210,26350,2110,22812,0,0,0,0,0.00,0.00,0.00,0.00
2013-08-06 16:20:00,2,24287,0,0.00,0,2,1,2,22192,26165,1258,24256,0,0,0,0,0.00,0.00,0.00,0.00
2013-08-06 16:30:00,2,23377,0,0.00,0,2,1,2,19972,29982,2986,22304,0,0,0,0,0.00,0.00,0.00,0.00
2013-08-06 16:40:00,2,21209,0,0.00,2,2,0,2,19410,23283,1120,20906,0,0,0,0,0.00,0.00,0.00,0.00
2013-08-06 16:50:00,2,22726,0,0.00,2,2,0,2,20246,26604,1988,22374,0,0,0,0,0.00,0.00,0.00,0.00
2013-08-06 17:00:00,2,22633,0,0.00,2,2,0,2,19847,24603,1633,22956,0,0,0,0,0.00,0.00,0.00,0.00
2013-08-06 17:10:00,2,23976,0,0.00,2,2,0,2,20853,26643,1757,24192,0,0,0,0,0.00,0.00,0.00,0.00
2013-08-06 17:20:00,2,25317,0,0.00,2,2,0,2,21629,30939,2766,25604,0,0,0,0,0.00,0.00,0.00,0.00
2013-08-06 17:30:00,2,20856,0,0.00,2,2,0,2,18270,24282,1869,20974,0,0,0,0,0.00,0.00,0.00,0.00
2013-08-06 17:40:00,2,20153,0,0.00,2,2,0,2,17755,21045,882,20266,0,0,0,0,0.00,0.00,0.00,0.00
2013-08-06 17:50:00,2,21510,0,0.00,2,2,0,2,18634,24420,2062,21644,0,0,0,0,0.00,0.00,0.00,0.00
2013-08-06 18:00:00,2,23944,0,0.00,2,2,0,2,20038,28109,2507,23744,0,0,0,0,0.00,0.00,0.00,0.00
2013-08-06 18:10:00,2,23406,0,0.00,2,2,0,2,20766,24977,1208,23398,0,0,0,0,0.00,0.00,0.00,0.00
2013-08-06 18:20:00,2,23211,0,0.00,2,2,0,2,20713,25239,1292,23450,0,0,0,0,0.00,0.00,0.00,0.00
2013-08-06 18:30:00,2,19875,0,0.00,2,2,0,2,17916,23138,1424,19555,0,0,0,0,0.00,0.00,0.00,0.00
2013-08-06 18:40:00,2,17148,0,0.00,2,2,0,2,15166,19922,1965,15930,0,0,0,0,0.00,0.00,0.00,0.00
2013-08-06 18:50:00,2,16782,0,0.00,2,2,0,2,15338,18496,905,16703,0,0,0,0,0.00,0.00,0.00,0.00
2013-08-06 19:00:00,2,16510,0,0.00,2,2,0,2,15058,18758,1160,16214,0,0,0,0,0.00,0.00,0.00,0.00
2013-08-06 19:10:00,2,16595,0,0.00,2,2,0,2,14720,18156,925,16597,0,0,0,0,0.00,0.00,0.00,0.00
2013-08-06 19:20:00,2,22685,0,0.00,2,2,0,2,18295,29707,3530,22194,0,0,0,0,0.00,0.00,0.00,0.00
2013-08-06 19:30:00,2,24912,0,0.00,2,2,0,2,21195,28006,2007,25045,0,0,0,0,0.00,0.00,0.00,0.00
2013-08-06 19:40:00,2,26865,0,0.00,2,2,0,2,22804,31936,2863,26676,0,0,0,0,0.00,0.00,0.00,0.00
2013-08-06 19:50:00,2,35912,0,0.00,2,2,0,2,21711,43956,7547,39153,0,0,0,0,0.00,0.00,0.00,0.00
2013-08-06 20:00:00,2,45939,0,0.00,2,2,0,2,43230,50000,2454,45184,0,0,0,0,0.00,0.00,0.00,0.00
2013-08-06 20:10:00,2,41554,0,0.00,2,2,0,2,34290,48929,4647,41308,0,0,0,0,0.00,0.00,0.00,0.00
2013-08-06 20:20:00,2,36937,0,0.00,2,2,0,2,32867,39913,2233,36852,0,0,0,0,0.00,0.00,0.00,0.00
2013-08-06 20:30:00,2,38410,0,0.00,2,2,0,2,34341,42187,2695,38125,0,0,0,0,0.00,0.00,0.00,0.00
2013-08-06 20:40:00,2,32423,0,0.00,2,2,0,2,29147,37831,2646,32410,0,0,0,0,0.00,0.00,0.00,0.00
2013-08-06 20:50:00,2,33192,0,0.00,2,2,0,2,27465,42108,4516,31801,0,0,0,0,0.00,0.00,0.00,0.00
2013-08-06 21:00:00,2,31378,0,0.00,2,2,0,2,25128,42978,5095,30884,0,0,0,0,0.00,0.00,0.00,0.00
2013-08-06 21:10:00,2,38858,0,0.00,2,2,0,2,28284,45340,5446,40060,0,0,0,0,0.00,0.00,0.00,0.00
2013-08-06 21:20:00,2,33883,0,0.00,2,2,0,2,30473,38027,2399,33429,0,0,0,0,0.00,0.00,0.00,0.00
2013-08-06 21:30:00,2,31569,0,0.00,2,2,0,2,26506,39691,4048,31237,0,0,0,0,0.00,0.00,0.00,0.00
2013-08-06 21:40:00,2,37468,0,0.00,2,2,0,2,30274,44148,5103,37027,0,0,0,0,0.00,0.00,0.00,0.00
2013-08-06 21:50:00,2,35212,0,0.00,2,2,0,2,30792,43096,3991,34018,0,0,0,0,0.00,0.00,0.00,0.00
2013-08-06 22:00:00,2,40079,0,0.00,2,2,0,2,34372,50000,5729,37270,0,0,0,0,0.00,0.00,0.00,0.00
2013-08-06 22:10:00,2,43860,0,0.00,2,2,0,2,35076,50000,5022,44381,0,0,0,0,0.00,0.00,0.00,0.00
2013-08-06 22:20:00,2,39528,0,0.00,2,2,0,2,29842,49666,5810,39488,0,0,0,0,0.00,0.00,0.00,0.00
2013-08-06 22:30:00,2,45536,0,0.00,2,2,0,2,37522,50000,4442,46414,0,0,0,0,0.00,0.00,0.00,0.00
2013-08-06 22:40:00,2,48493,0,0.00,2,2,0,2,44710,50000,1786,49396,0,0,0,0,0.00,0.00,0.00,0.00
2013-08-06 22:50:00,2,44944,0,0.00,2,2,0,2,40573,50000,2921,45270,0,0,0,0,0.00,0.00,0.00,0.00
2013-08-06 23:00:00,2,45492,0,0.00,2,2,0,2,39388,50000,3540,46285,0,0,0,0,0.00,0.00,0.00,0.00
2013-08-06 23:10:00,2,44474,0,0.00,2,2,0,2,30718,50000,6334,46838,0,0,0,0,0.00,0.00,0.00,0.00
2013-08-06 23:20:00,2,48097,0,0.00,2,2,0,2,44097,50000,2282,49626,0,0,0,0,0.00,0.00,0.00,0.00
2013-08-06 23:30:00,2,44316,0,0.00,2,2,0,2,32946,50000,5429,44134,0,0,0,0,0.00,0.00,0.00,0.00
2013-08-06 23:40:00,2,49310,0,0.00,2,2,0,2,43771,50000,1855,50000,0,0,0,0,0.00,0.00,0.00,0.00
2013-08-06 23:50:00,2,49380,0,0.00,2,2,0,2,46297,50000,1268,50000,0,0,0,0,0.00,0.00,0.00,0.00
